QPF
0.00 0.00 0.00 0.00 0.00 0.00 0.00 0.01 0.03 0.04 0.02 0.03 0.10 0.16 0.15 0.07 0.04 0.06 0.06 0.06 0.08 0.08 0.07 0.06 0.07 0.09 0.05 0.03 0.03 0.02 0.04 0.05 0.04 0.04 0.04 0.03 0.02 0.02 0.02 0.02 0.02 0.01 0.01 0.01
0.00 0.00 0.00 0.00 0.00 0.00 0.00 0.02 0.06 0.06 0.02 0.02 0.06 0.14 0.11 0.05 0.04 0.07 0.06 0.07 0.08 0.08 0.09 0.07 0.05 0.10 0.11 0.06 0.04 0.03 0.04 0.04 0.04 0.04 0.03 0.02 0.01 0.01 0.01 0.01 0.01 0.01 0.01 0.01
0.00 0.00 0.00 0.00 0.00 0.00 0.01 0.02 0.06 0.03 0.01 0.03 0.05 0.11 0.09 0.07 0.04 0.05 0.06 0.07 0.08 0.06 0.08 0.07 0.05 0.04 0.05 0.04 0.03 0.03 0.03 0.02 0.03 0.03 0.02 0.01 0.01 0.01 0.01 0.01 0.01 0.01 0.01 0.01
0.00 0.00 0.00 0.00 0.00 0.00 0.03 0.01 0.01 0.01 0.03 0.16 0.14 0.23 0.19 0.09 0.06 0.05 0.09 0.10 0.06 0.03 0.03 0.03 0.04 0.05 0.03 0.03 0.01 0.02 0.02 0.01 0.02 0.02 0.02 0.01 0.01 0.01 0.01 0.00 0.00 0.00 0.00 0.00
0.00 0.00 0.00 0.00 0.00 0.00 0.01 0.00 0.00 0.01 0.04 0.16 0.14 0.20 0.20 0.10 0.12 0.10 0.08 0.09 0.06 0.03 0.02 0.03 0.02 0.02 0.02 0.02 0.01 0.02 0.02 0.02 0.02 0.02 0.02 0.02 0.03 0.01 0.01 0.01 0.01 0.01 0.00 0.00
0.00 0.00 0.00 0.00 0.00 0.00 0.00 0.00 0.02 0.05 0.13 0.23 0.11 0.10 0.17 0.15 0.13 0.17 0.10 0.08 0.08 0.02 0.01 0.01 0.02 0.02 0.02 0.03 0.05 0.02 0.02 0.02 0.01 0.01 0.02 0.02 0.03 0.02 0.02 0.02 0.02 0.02 0.01 0.01
0.01 0.01 0.00 0.00 0.00 0.00 0.00 0.04 0.20 0.31 0.39 0.23 0.05 0.04 0.07 0.08 0.05 0.05 0.05 0.04 0.04 0.01 0.01 0.01 0.01 0.01 0.01 0.04 0.03 0.01 0.02 0.02 0.01 0.01 0.02 0.02 0.03 0.03 0.03 0.02 0.02 0.01 0.01 0.01
0.01 0.02 0.01 0.00 0.00 0.00 0.01 0.05 0.21 0.25 0.25 0.16 0.05 0.04 0.04 0.02 0.01 0.01 0.01 0.00 0.01 0.00 0.00 0.00 0.00 0.00 0.00 0.01 0.00 0.00 0.01 0.01 0.01 0.01 0.02 0.01 0.02 0.01 0.01 0.02 0.01 0.01 0.01 0.00
0.01 0.02 0.01 0.00 0.00 0.00 0.00 0.02 0.02 0.03 0.07 0.12 0.06 0.04 0.04 0.05 0.03 0.01 0.00 0.00 0.00 0.00 0.00 0.00 0.00 0.00 0.00 0.00 0.00 0.00 0.01 0.01 0.01 0.01 0.01 0.01 0.01 0.00 0.00 0.00 0.00 0.00 0.01 0.01
0.01 0.01 0.00 0.00 0.00 0.00 0.00 0.00 0.00 0.01 0.05 0.08 0.09 0.07 0.06 0.05 0.01 0.00 0.00 0.00 0.00 0.00 0.00 0.00 0.00 0.00 0.00 0.00 0.00 0.00 0.00 0.00 0.00 0.00 0.00 0.00 0.00 0.00 0.00 0.00 0.00 0.00 0.01 0.01
0.00 0.00 0.01 0.00 0.00 0.01 0.00 0.00 0.00 0.00 0.00 0.03 0.10 0.09 0.04 0.02 0.00 0.00 0.00 0.00 0.00 0.00 0.00 0.00 0.00 0.00 0.00 0.00 0.00 0.00 0.00 0.00 0.00 0.00 0.00 0.00 0.00 0.00 0.00 0.00 0.00 0.01 0.01 0.01
0.00 0.00 0.01 0.01 0.01 0.00 0.00 0.00 0.00 0.01 0.01 0.01 0.03 0.04 0.03 0.02 0.01 0.00 0.00 0.00 0.00 0.00 0.00 0.00 0.00 0.00 0.00 0.00 0.00 0.00 0.00 0.00 0.00 0.00 0.00 0.00 0.00 0.00 0.00 0.00 0.01 0.01 0.01 0.01
0.00 0.00 0.02 0.07 0.07 0.02 0.00 0.00 0.00 0.00 0.00 0.00 0.01 0.02 0.01 0.01 0.03 0.01 0.00 0.00 0.00 0.00 0.00 0.00 0.00 0.00 0.00 0.00 0.00 0.00 0.00 0.00 0.00 0.00 0.00 0.00 0.00 0.00 0.01 0.01 0.01 0.01 0.01 0.01
0.00 0.00 0.03 0.20 0.22 0.08 0.01 0.00 0.00 0.00 0.00 0.00 0.02 0.03 0.02 0.00 0.02 0.01 0.00 0.00 0.00 0.00 0.00 0.00 0.00 0.00 0.00 0.00 0.00 0.00 0.00 0.00 0.00 0.00 0.00 0.00 0.00 0.00 0.00 0.01 0.01 0.01 0.01 0.01
0.00 0.00 0.01 0.04 0.04 0.04 0.02 0.00 0.00 0.00 0.00 0.00 0.01 0.03 0.01 0.01 0.01 0.00 0.00 0.00 0.00 0.00 0.00 0.00 0.00 0.00 0.00 0.00 0.00 0.00 0.00 0.00 0.00 0.00 0.00 0.00 0.00 0.00 0.01 0.01 0.01 0.01 0.01 0.01
0.00 0.00 0.00 0.01 0.02 0.02 0.01 0.00 0.00 0.00 0.00 0.00 0.00 0.01 0.01 0.01 0.00 0.00 0.00 0.00 0.00 0.00 0.00 0.00 0.00 0.00 0.00 0.00 0.00 0.00 0.00 0.00 0.00 0.00 0.00 0.00 0.00 0.00 0.01 0.01 0.00 0.01 0.01 0.01
0.00 0.00 0.00 0.01 0.03 0.03 0.01 0.00 0.00 0.00 0.00 0.00 0.00 0.00 0.00 0.01 0.00 0.00 0.00 0.00 0.00 0.00 0.00 0.00 0.00 0.00 0.00 0.00 0.00 0.00 0.00 0.00 0.00 0.00 0.00 0.00 0.00 0.00 0.00 0.00 0.00 0.01 0.01 0.01
0.00 0.00 0.01 0.02 0.04 0.03 0.02 0.01 0.00 0.00 0.00 0.00 0.00 0.00 0.00 0.00 0.00 0.00 0.00 0.00 0.00 0.00 0.00 0.00 0.00 0.00 0.00 0.00 0.00 0.00 0.00 0.00 0.00 0.00 0.00 0.00 0.00 0.00 0.00 0.00 0.01 0.01 0.02 0.02
0.00 0.00 0.00 0.01 0.04 0.04 0.03 0.01 0.00 0.00 0.00 0.00 0.00 0.00 0.00 0.00 0.00 0.00 0.00 0.00 0.00 0.00 0.00 0.00 0.00 0.00 0.00 0.00 0.00 0.00 0.00 0.00 0.00 0.00 0.00 0.00 0.00 0.00 0.00 0.01 0.01 0.02 0.02 0.02
0.00 0.00 0.00 0.00 0.02 0.05 0.04 0.03 0.01 0.00 0.00 0.00 0.00 0.00 0.00 0.00 0.00 0.00 0.00 0.00 0.00 0.00 0.00 0.00 0.00 0.00 0.00 0.00 0.00 0.00 0.00 0.00 0.00 0.00 0.00 0.00 0.00 0.00 0.00 0.01 0.02 0.02 0.03 0.03
0.01 0.00 0.00 0.00 0.01 0.04 0.07 0.03 0.01 0.01 0.01 0.00 0.00 0.00 0.00 0.00 0.00 0.00 0.00 0.00 0.00 0.00 0.00 0.00 0.00 0.00 0.00 0.00 0.00 0.00 0.00 0.00 0.00 0.00 0.00 0.00 0.00 0.00 0.00 0.01 0.02 0.02 0.02 0.03
0.02 0.01 0.02 0.02 0.05 0.06 0.08 0.04 0.04 0.04 0.01 0.00 0.00 0.00 0.00 0.00 0.00 0.00 0.00 0.00 0.00 0.00 0.00 0.00 0.00 0.00 0.00 0.00 0.00 0.00 0.00 0.00 0.00 0.00 0.00 0.00 0.00 0.00 0.00 0.01 0.02 0.02 0.02 0.03
0.01 0.02 0.05 0.10 0.12 0.08 0.05 0.05 0.04 0.03 0.01 0.00 0.00 0.00 0.00 0.00 0.00 0.00 0.00 0.00 0.00 0.00 0.00 0.00 0.00 0.00 0.00 0.00 0.00 0.00 0.00 0.00 0.00 0.00 0.00 0.00 0.00 0.01 0.01 0.01 0.01 0.01 0.02 0.02
0.02 0.03 0.04 0.09 0.15 0.12 0.08 0.04 0.03 0.01 0.00 0.00 0.00 0.00 0.00 0.00 0.00 0.00 0.00 0.00 0.00 0.00 0.00 0.00 0.00 0.00 0.00 0.00 0.00 0.00 0.00 0.00 0.00 0.00 0.00 0.00 0.00 0.01 0.01 0.02 0.01 0.01 0.01 0.01
0.04 0.03 0.03 0.06 0.10 0.11 0.11 0.05 0.01 0.01 0.00 0.00 0.00 0.00 0.00 0.00 0.00 0.00 0.00 0.00 0.00 0.00 0.00 0.00 0.00 0.00 0.00 0.00 0.00 0.00 0.00 0.00 0.00 0.00 0.00 0.00 0.00 0.01 0.01 0.01 0.01 0.01 0.01 0.01
0.01 0.03 0.05 0.05 0.03 0.01 0.03 0.03 0.01 0.01 0.01 0.00 0.00 0.00 0.00 0.00 0.00 0.00 0.00 0.00 0.00 0.00 0.00 0.00 0.00 0.00 0.00 0.00 0.00 0.00 0.00 0.00 0.00 0.01 0.00 0.00 0.00 0.00 0.00 0.01 0.01 0.01 0.00 0.00
MSLP
1007.90 1008.10 1008.32 1008.68 1009.22 1009.99 1010.96 1012.04 1013.10 1013.99 1014.60 1014.85 1014.71 1014.26 1013.61 1012.89 1012.26 1011.84 1011.68 1011.79 1012.10 1012.54 1012.99 1013.36 1013.60 1013.69 1013.68 1013.60 1013.53 1013.51 1013.57 1013.71 1013.90 1014.08 1014.21 1014.26 1014.20 1014.05 1013.86 1013.66 1013.50 1013.43 1013.45 1013.55
1008.15 1008.18 1008.24 1008.45 1008.92 1009.68 1010.73 1011.95 1013.21 1014.32 1015.13 1015.52 1015.47 1015.02 1014.29 1013.44 1012.64 1012.06 1011.76 1011.77 1012.04 1012.48 1012.97 1013.40 1013.70 1013.83 1013.82 1013.74 1013.64 1013.60 1013.65 1013.81 1014.04 1014.29 1014.50 1014.61 1014.60 1014.47 1014.26 1014.01 1013.78 1013.63 1013.59 1013.65
1008.21 1008.08 1007.98 1008.06 1008.45 1009.21 1010.32 1011.68 1013.11 1014.42 1015.41 1015.94 1015.97 1015.52 1014.73 1013.76 1012.81 1012.07 1011.64 1011.55 1011.78 1012.22 1012.75 1013.25 1013.62 1013.82 1013.87 1013.82 1013.75 1013.72 1013.81 1014.00 1014.28 1014.60 1014.87 1015.05 1015.09 1014.98 1014.75 1014.46 1014.17 1013.95 1013.84 1013.87
1008.10 1007.83 1007.60 1007.58 1007.92 1008.68 1009.85 1011.33 1012.91 1014.38 1015.52 1016.17 1016.27 1015.83 1014.98 1013.91 1012.84 1011.95 1011.39 1011.20 1011.37 1011.81 1012.39 1012.96 1013.42 1013.72 1013.86 1013.88 1013.87 1013.89 1014.01 1014.24 1014.58 1014.94 1015.28 1015.51 1015.59 1015.50 1015.26 1014.95 1014.62 1014.35 1014.18 1014.16
1007.91 1007.54 1007.23 1007.16 1007.47 1008.25 1009.46 1011.02 1012.71 1014.29 1015.54 1016.27 1016.42 1015.99 1015.10 1013.95 1012.77 1011.76 1011.09 1010.81 1010.94 1011.36 1011.97 1012.62 1013.17 1013.58 1013.82 1013.93 1013.98 1014.06 1014.22 1014.49 1014.85 1015.25 1015.63 1015.90 1016.02 1015.96 1015.74 1015.42 1015.06 1014.75 1014.54 1014.47
1007.75 1007.34 1007.00 1006.91 1007.22 1008.00 1009.24 1010.83 1012.57 1014.20 1015.49 1016.27 1016.44 1016.01 1015.10 1013.89 1012.64 1011.55 1010.79 1010.45 1010.52 1010.94 1011.58 1012.28 1012.92 1013.43 1013.76 1013.96 1014.08 1014.20 1014.38 1014.67 1015.04 1015.46 1015.85 1016.16 1016.31 1016.29 1016.10 1015.79 1015.44 1015.11 1014.87 1014.75
1007.72 1007.32 1007.00 1006.92 1007.23 1008.00 1009.22 1010.79 1012.48 1014.09 1015.36 1016.13 1016.29 1015.86 1014.94 1013.72 1012.44 1011.31 1010.51 1010.13 1010.18 1010.60 1011.25 1012.00 1012.71 1013.29 1013.70 1013.97 1014.14 1014.29 1014.48 1014.76 1015.12 1015.53 1015.92 1016.24 1016.43 1016.45 1016.30 1016.04 1015.71 1015.39 1015.13 1014.97
1007.88 1007.54 1007.26 1007.21 1007.52 1008.24 1009.38 1010.83 1012.41 1013.90 1015.08 1015.78 1015.92 1015.48 1014.58 1013.39 1012.14 1011.04 1010.25 1009.87 1009.92 1010.34 1011.02 1011.80 1012.55 1013.19 1013.66 1013.97 1014.17 1014.33 1014.51 1014.76 1015.08 1015.46 1015.84 1016.17 1016.38 1016.44 1016.35 1016.14 1015.86 1015.55 1015.29 1015.10
1008.21 1007.96 1007.76 1007.74 1008.01 1008.65 1009.64 1010.90 1012.28 1013.57 1014.59 1015.18 1015.26 1014.84 1013.99 1012.89 1011.73 1010.71 1009.99 1009.67 1009.75 1010.19 1010.87 1011.67 1012.46 1013.12 1013.63 1013.97 1014.18 1014.34 1014.49 1014.70 1014.98 1015.31 1015.66 1015.98 1016.21 1016.31 1016.28 1016.12 1015.89 1015.62 1015.37 1015.16
1008.63 1008.50 1008.38 1008.38 1008.60 1009.10 1009.88 1010.89 1011.99 1013.03 1013.84 1014.29 1014.31 1013.91 1013.16 1012.19 1011.18 1010.32 1009.73 1009.50 1009.64 1010.12 1010.82 1011.63 1012.41 1013.10 1013.62 1013.97 1014.20 1014.34 1014.47 1014.63 1014.85 1015.13 1015.44 1015.73 1015.96 1016.10 1016.11 1016.01 1015.83 1015.61 1015.37 1015.16
1009.02 1009.02 1008.98 1009.00 1009.14 1009.48 1010.02 1010.73 1011.51 1012.25 1012.82 1013.13 1013.10 1012.74 1012.11 1011.32 1010.53 1009.87 1009.46 1009.36 1009.59 1010.11 1010.82 1011.63 1012.41 1013.10 1013.62 1013.99 1014.22 1014.36 1014.46 1014.59 1014.76 1014.99 1015.25 1015.50 1015.72 1015.86 1015.90 1015.84 1015.71 1015.52 1015.31 1015.10
1009.26 1009.40 1009.44 1009.47 1009.54 1009.70 1009.99 1010.39 1010.85 1011.29 1011.63 1011.78 1011.71 1011.41 1010.94 1010.37 1009.82 1009.40 1009.19 1009.24 1009.57 1010.13 1010.86 1011.66 1012.43 1013.10 1013.62 1014.00 1014.24 1014.39 1014.49 1014.60 1014.73 1014.91 1015.11 1015.32 1015.50 1015.62 1015.67 1015.64 1015.53 1015.38 1015.19 1015.00
1009.29 1009.56 1009.69 1009.74 1009.74 1009.75 1009.80 1009.92 1010.08 1010.24 1010.36 1010.38 1010.29 1010.07 1009.76 1009.43 1009.13 1008.95 1008.95 1009.16 1009.58 1010.18 1010.91 1011.68 1012.41 1013.07 1013.59 1013.98 1014.24 1014.41 1014.53 1014.63 1014.75 1014.88 1015.03 1015.18 1015.31 1015.40 1015.43 1015.39 1015.30 1015.17 1015.01 1014.84
1009.13 1009.51 1009.74 1009.81 1009.76 1009.65 1009.52 1009.39 1009.29 1009.22 1009.15 1009.07 1008.97 1008.84 1008.70 1008.58 1008.52 1008.57 1008.76 1009.11 1009.61 1010.23 1010.93 1011.66 1012.35 1012.97 1013.49 1013.89 1014.18 1014.39 1014.54 1014.66 1014.77 1014.88 1014.98 1015.07 1015.14 1015.17 1015.16 1015.10 1015.01 1014.88 1014.74 1014.60
1008.84 1009.33 1009.63 1009.74 1009.68 1009.50 1009.23 1008.92 1008.62 1008.36 1008.14 1007.98 1007.88 1007.82 1007.83 1007.90 1008.05 1008.30 1008.65 1009.10 1009.65 1010.27 1010.93 1011.59 1012.23 1012.80 1013.30 1013.71 1014.04 1014.29 1014.49 1014.64 1014.76 1014.85 1014.92 1014.96 1014.96 1014.93 1014.86 1014.77 1014.65 1014.52 1014.39 1014.28
1008.53 1009.10 1009.47 1009.64 1009.59 1009.37 1009.01 1008.58 1008.14 1007.74 1007.41 1007.18 1007.07 1007.08 1007.19 1007.42 1007.73 1008.13 1008.60 1009.12 1009.69 1010.28 1010.88 1011.47 1012.04 1012.56 1013.03 1013.44 1013.80 1014.10 1014.34 1014.54 1014.68 1014.78 1014.82 1014.81 1014.76 1014.66 1014.53 1014.39 1014.24 1014.10 1013.97 1013.87
1008.31 1008.92 1009.36 1009.58 1009.56 1009.34 1008.94 1008.43 1007.89 1007.38 1006.96 1006.68 1006.55 1006.59 1006.78 1007.11 1007.54 1008.04 1008.58 1009.15 1009.72 1010.27 1010.80 1011.31 1011.80 1012.25 1012.69 1013.10 1013.47 1013.81 1014.11 1014.35 1014.52 1014.63 1014.66 1014.63 1014.52 1014.37 1014.19 1014.00 1013.81 1013.65 1013.52 1013.42
1008.24 1008.87 1009.34 1009.60 1009.62 1009.41 1008.99 1008.44 1007.83 1007.25 1006.75 1006.41 1006.25 1006.30 1006.52 1006.91 1007.41 1007.98 1008.57 1009.16 1009.72 1010.23 1010.70 1011.13 1011.54 1011.94 1012.33 1012.72 1013.10 1013.48 1013.81 1014.09 1014.30 1014.43 1014.47 1014.41 1014.28 1014.08 1013.86 1013.62 1013.40 1013.21 1013.07 1012.97
1008.29 1008.91 1009.39 1009.68 1009.73 1009.53 1009.11 1008.53 1007.87 1007.22 1006.66 1006.25 1006.06 1006.08 1006.31 1006.72 1007.27 1007.88 1008.51 1009.12 1009.68 1010.17 1010.59 1010.96 1011.31 1011.65 1012.00 1012.37 1012.75 1013.13 1013.50 1013.81 1014.05 1014.20 1014.24 1014.19 1014.04 1013.82 1013.56 1013.29 1013.03 1012.82 1012.66 1012.55
1008.40 1008.98 1009.45 1009.74 1009.79 1009.60 1009.17 1008.57 1007.87 1007.16 1006.54 1006.07 1005.83 1005.82 1006.04 1006.47 1007.04 1007.69 1008.36 1009.00 1009.58 1010.06 1010.47 1010.81 1011.12 1011.42 1011.74 1012.08 1012.45 1012.83 1013.21 1013.54 1013.80 1013.97 1014.02 1013.97 1013.81 1013.58 1013.30 1013.00 1012.73 1012.49 1012.31 1012.18
1008.45 1008.98 1009.41 1009.67 1009.71 1009.51 1009.07 1008.44 1007.71 1006.95 1006.28 1005.76 1005.47 1005.43 1005.64 1006.07 1006.67 1007.37 1008.09 1008.78 1009.40 1009.92 1010.35 1010.69 1010.99 1011.27 1011.56 1011.87 1012.22 1012.60 1012.96 1013.30 1013.56 1013.73 1013.80 1013.75 1013.59 1013.35 1013.06 1012.75 1012.46 1012.20 1012.01 1011.87
1008.34 1008.80 1009.18 1009.39 1009.40 1009.18 1008.72 1008.08 1007.32 1006.53 1005.82 1005.27 1004.94 1004.88 1005.08 1005.53 1006.16 1006.91 1007.69 1008.45 1009.14 1009.72 1010.20 1010.57 1010.89 1011.17 1011.44 1011.74 1012.07 1012.41 1012.76 1013.07 1013.33 1013.49 1013.55 1013.50 1013.34 1013.10 1012.80 1012.49 1012.19 1011.92 1011.72 1011.57
1008.04 1008.42 1008.72 1008.88 1008.85 1008.60 1008.13 1007.47 1006.70 1005.91 1005.18 1004.61 1004.27 1004.20 1004.41 1004.87 1005.54 1006.34 1007.19 1008.03 1008.80 1009.46 1010.00 1010.43 1010.78 1011.08 1011.35 1011.64 1011.93 1012.25 1012.56 1012.84 1013.07 1013.21 1013.26 1013.20 1013.03 1012.79 1012.49 1012.17 1011.87 1011.60 1011.40 1011.25
1007.55 1007.84 1008.07 1008.17 1008.09 1007.82 1007.34 1006.69 1005.93 1005.15 1004.44 1003.88 1003.55 1003.48 1003.70 1004.19 1004.88 1005.73 1006.63 1007.54 1008.39 1009.12 1009.74 1010.23 1010.63 1010.95 1011.23 1011.51 1011.78 1012.05 1012.32 1012.56 1012.75 1012.87 1012.89 1012.81 1012.63 1012.38 1012.08 1011.76 1011.46 1011.21 1011.01 1010.88
1006.94 1007.16 1007.31 1007.36 1007.25 1006.96 1006.49 1005.87 1005.15 1004.41 1003.74 1003.21 1002.91 1002.86 1003.09 1003.58 1004.29 1005.15 1006.09 1007.04 1007.93 1008.73 1009.40 1009.95 1010.38 1010.73 1011.03 1011.29 1011.54 1011.78 1012.01 1012.21 1012.35 1012.42 1012.41 1012.31 1012.13 1011.87 1011.57 1011.26 1010.97 1010.73 1010.55 1010.44
1006.35 1006.50 1006.59 1006.59 1006.46 1006.18 1005.74 1005.17 1004.51 1003.84 1003.24 1002.77 1002.49 1002.46 1002.69 1003.18 1003.87 1004.71 1005.64 1006.58 1007.48 1008.30 1009.00 1009.57 1010.03 1010.40 1010.70 1010.96 1011.19 1011.40 1011.59 1011.75 1011.85 1011.89 1011.85 1011.73 1011.54 1011.28 1010.99 1010.69 1010.41 1010.19 1010.03 1009.94
Thickness
5808 5793 5787 5797 5805 5803 5796 5781 5769 5771 5786 5774 5760 5751 5754 5767 5771 5769 5767 5764 5759 5758 5761 5763 5762 5759 5755 5752 5749 5746 5743 5740 5737 5734 5730 5727 5725 5725 5724 5722 5719 5717 5714 5711
5798 5790 5805 5814 5813 5807 5795 5776 5770 5777 5789 5776 5759 5754 5756 5765 5770 5766 5763 5761 5757 5753 5754 5756 5756 5755 5750 5747 5744 5742 5739 5736 5733 5729 5727 5724 5722 5721 5721 5718 5715 5712 5709 5706
5795 5807 5822 5813 5805 5796 5788 5777 5772 5772 5779 5774 5757 5744 5751 5760 5767 5764 5761 5759 5757 5753 5750 5751 5752 5751 5748 5744 5741 5740 5735 5732 5729 5726 5724 5721 5718 5716 5714 5712 5709 5707 5705 5702
5807 5819 5816 5807 5800 5796 5779 5791 5786 5777 5762 5740 5737 5717 5737 5749 5753 5757 5755 5754 5754 5754 5752 5750 5750 5748 5746 5742 5741 5736 5732 5728 5725 5722 5718 5713 5710 5706 5706 5705 5704 5702 5700 5698
5803 5813 5808 5801 5803 5804 5793 5799 5785 5770 5750 5729 5729 5716 5723 5741 5737 5745 5751 5754 5756 5754 5753 5751 5749 5746 5745 5744 5740 5735 5730 5725 5721 5718 5714 5709 5705 5702 5701 5699 5697 5695 5694 5693
5810 5822 5818 5812 5816 5814 5807 5793 5773 5753 5730 5708 5728 5724 5717 5731 5740 5743 5749 5756 5757 5756 5755 5752 5750 5747 5744 5742 5738 5733 5726 5721 5718 5714 5710 5705 5700 5696 5693 5691 5689 5688 5688 5687
5788 5802 5814 5821 5806 5807 5798 5769 5728 5705 5691 5704 5742 5734 5731 5753 5759 5757 5754 5758 5760 5759 5755 5751 5747 5744 5741 5739 5735 5730 5723 5718 5715 5710 5706 5701 5697 5693 5689 5686 5684 5682 5680 5679
5770 5767 5792 5812 5805 5792 5790 5771 5732 5710 5702 5718 5743 5737 5748 5769 5773 5771 5769 5767 5763 5760 5757 5753 5749 5745 5741 5738 5733 5728 5722 5715 5711 5706 5702 5698 5694 5690 5687 5682 5678 5676 5673 5671
5775 5770 5803 5815 5818 5807 5789 5780 5779 5753 5735 5721 5733 5744 5755 5770 5771 5772 5771 5767 5763 5761 5758 5754 5751 5747 5742 5737 5732 5727 5720 5713 5708 5703 5699 5695 5691 5686 5682 5678 5674 5672 5668 5665
5796 5777 5796 5811 5815 5812 5805 5798 5785 5767 5739 5719 5721 5729 5740 5754 5761 5768 5769 5766 5765 5762 5759 5754 5751 5746 5741 5736 5730 5725 5718 5712 5706 5701 5696 5694 5688 5683 5679 5675 5670 5666 5662 5658
5806 5782 5786 5794 5788 5786 5793 5792 5785 5780 5773 5739 5713 5727 5765 5765 5769 5770 5772 5771 5768 5764 5760 5755 5751 5746 5740 5735 5729 5723 5717 5711 5705 5699 5694 5689 5685 5680 5676 5671 5667 5663 5658 5653
5802 5789 5770 5774 5792 5797 5794 5789 5784 5765 5761 5766 5747 5739 5781 5778 5779 5777 5775 5774 5771 5766 5762 5757 5751 5744 5738 5732 5726 5720 5715 5709 5704 5699 5693 5688 5683 5677 5672 5667 5663 5658 5653 5648
5795 5778 5755 5747 5755 5771 5778 5790 5792 5784 5773 5766 5748 5742 5782 5783 5782 5782 5778 5774 5769 5764 5760 5754 5747 5740 5734 5729 5723 5718 5713 5708 5703 5697 5691 5685 5679 5673 5667 5663 5658 5653 5648 5643
5796 5776 5756 5722 5719 5745 5760 5780 5791 5783 5766 5761 5759 5756 5770 5776 5778 5778 5777 5773 5768 5761 5755 5750 5742 5737 5731 5725 5720 5716 5711 5706 5701 5694 5687 5681 5675 5670 5665 5660 5655 5649 5644 5639
5793 5773 5769 5759 5759 5763 5769 5781 5791 5786 5782 5770 5768 5767 5772 5777 5780 5780 5777 5772 5766 5758 5753 5747 5740 5734 5728 5723 5718 5714 5708 5703 5697 5690 5684 5679 5674 5668 5662 5657 5651 5646 5640 5635
5788 5771 5770 5766 5772 5772 5772 5787 5792 5792 5792 5787 5784 5778 5788 5787 5784 5780 5775 5770 5763 5758 5753 5748 5741 5733 5726 5721 5716 5711 5706 5700 5695 5688 5682 5677 5671 5666 5660 5654 5649 5643 5637 5631
5781 5771 5760 5757 5772 5771 5765 5786 5792 5793 5798 5793 5780 5782 5789 5782 5780 5777 5774 5770 5764 5759 5754 5747 5740 5732 5726 5720 5715 5708 5704 5699 5693 5687 5681 5676 5670 5663 5657 5652 5645 5639 5632 5627
5777 5768 5762 5758 5757 5736 5767 5799 5801 5796 5798 5802 5797 5795 5792 5787 5785 5784 5779 5771 5765 5760 5754 5747 5740 5732 5726 5721 5715 5708 5703 5697 5691 5685 5679 5673 5667 5660 5654 5647 5641 5635 5628 5622
5788 5770 5759 5754 5746 5753 5773 5786 5790 5787 5785 5801 5797 5793 5792 5790 5783 5777 5780 5774 5766 5761 5754 5746 5740 5733 5725 5719 5713 5706 5700 5695 5689 5683 5677 5671 5664 5657 5650 5643 5637 5631 5625 5618
5785 5775 5759 5753 5742 5734 5755 5780 5797 5787 5770 5795 5795 5788 5786 5780 5762 5765 5776 5772 5765 5759 5752 5745 5739 5731 5722 5716 5710 5702 5696 5691 5685 5680 5675 5668 5661 5653 5646 5640 5634 5628 5622 5615
5760 5758 5753 5750 5745 5753 5770 5783 5784 5758 5762 5791 5793 5788 5784 5777 5771 5771 5772 5766 5761 5754 5748 5742 5735 5726 5719 5713 5706 5697 5692 5687 5683 5678 5672 5665 5658 5651 5645 5639 5633 5626 5619 5614
5756 5752 5749 5747 5734 5737 5771 5773 5759 5760 5782 5790 5789 5789 5784 5779 5775 5771 5766 5760 5755 5748 5743 5737 5729 5721 5716 5710 5702 5694 5688 5685 5680 5674 5668 5661 5655 5649 5645 5637 5631 5624 5617 5611
5767 5764 5754 5743 5736 5746 5760 5765 5772 5778 5778 5785 5788 5788 5784 5777 5771 5767 5761 5755 5750 5745 5739 5734 5725 5717 5712 5706 5699 5691 5687 5682 5676 5669 5663 5658 5652 5647 5641 5635 5628 5622 5617 5610
5768 5771 5756 5744 5744 5750 5754 5761 5771 5780 5782 5785 5787 5786 5781 5774 5770 5763 5757 5751 5746 5741 5735 5729 5721 5713 5707 5703 5697 5691 5685 5679 5672 5665 5659 5655 5650 5645 5640 5634 5627 5620 5614 5608
5760 5761 5753 5747 5752 5754 5756 5762 5771 5776 5779 5780 5781 5781 5776 5771 5766 5760 5752 5746 5741 5736 5731 5725 5717 5710 5704 5699 5693 5688 5682 5675 5667 5661 5656 5651 5648 5644 5638 5632 5625 5619 5613 5606
5763 5757 5747 5740 5751 5755 5757 5767 5774 5772 5771 5774 5774 5772 5772 5768 5762 5756 5749 5743 5737 5731 5726 5718 5712 5706 5700 5695 5689 5684 5678 5671 5662 5655 5651 5648 5644 5640 5635 5629 5625 5620 5612 5605